Location: Saluda
(35.2377°N, 82.3468°W)
Time: 14:59:25
(UTC+00:00)

SR - Pass Details

Date: 06 October 2022
Orbit: 577 x 875 km, 66.7° (Epoch: 28 November)

Event Time Altitude Azimuth Distance (km) Brightness Sun altitude
Rises 11:09:32 0° 327° (NNW) 3,255 ? -4.6°
Reaches altitude 10° 11:12:05 10° 323° (NW) 2,275 ? -4.1°
Maximum altitude 11:17:04 50° 249° (WSW) 889 ? -3.1°
Drops below altitude 10° 11:21:37 10° 173° (S) 2,072 ? -2.2°
Sets 11:23:52 0° 168° (SSE) 2,936 ? -1.7°
